COSMOS 1275 DEB, 12729

Orbit data source: Space-Track

COSMOS 1275 DEB, 12729 is space debris in LEO originally from a launch on Thu, 04 Jun 1981 UTC launched from the Plesetsk Missile And Space Complex (PKMTR). Debris objects in space refer to the collection of defunct objects orbiting the Earth. Examples of debris include non-operational satellites, rocket bodies, and fragments generated from explosions, collisions, or faulty payload assembly.

Loading next visibility...
Identifier
12729, 1981-053BW
Orbit
LEO
Country
Flag of CISCIS
Related business
Manufacturer
Unknown
Mission
Spacecraft
Bus & Motor
Unknown
Mass
Unknown
Launch date (UTC)
1981-06-04 (45 years ago)
Launch vehicle
Unknown
Launch site
Plesetsk Missile And Space Complex (PKMTR)
Object type
Payload
Rocket body
Debris
Shape & HBR
Unknown shape, 0.1 m
Radar Cross Section
Small (<0.1 m²)

Expand to show TLE details & history
Last TLE update: 15 hours ago

TLE from 15 hours ago
0 COSMOS 1275 DEB
1 12729U 81053BW  25349.95756181  .00000513  00000-0  63235-3 0  9994
2 12729  83.0450 229.3834 0128037 273.9640 102.2327 13.60219371 54746
Epoch: 2025-12-15T22:58Z
TLE epoch observation values (Epoch: 2025-12-15T22:58:53.340Z)
Latitude
17.48061°
Longitude
162.00283°
Altitude
1,058.463 km
Speed
7.314 km/s
True Right ascension
15h 26m 17s
True Declination
17° 23' 11"
Sunlit
Object was in daylight at epoch
Visualization orbit readout
Latitude
Unknown
Longitude
Unknown
Altitude
Unknown
Speed
Unknown
Apparent Right ascension
Unknown
Apparent Declination
Unknown
Sunlit
N/A
Visualization observer readout
Local Sidereal Time
12:36:22
Azimuth
Unknown
Elevation
Unknown
Doppler factor
Unknown
Orbital elements
Apogee altitude
1,126.938 km
Perigee altitude
937.182 km
Semi-major axis
7,410.197 km
Eccentricity
0.0128
Inclination
83.045°
RAAN
229.3834°
Arg. of periapsis
273.964°
True anomaly
103.66159°
Mean anomaly
102.2327°
Eccentric anomaly
102.94765°
Mean motion
3.4025 °/min
Orbital period
105.8 mins
BSTAR
0.00063235
Loading maneuver chart data...
Computing Atmospheric mass density...
Loading historical data...
Loading historical data...
Loading historical data...
Loading historical data...
Loading historical data...
Loading historical data...
Loading historical data...

Documentation

Showing up to 5 results
|